Regional Weather Roundup
Issued by NWS Newport/Morehead, NC

Current Version | Previous Version | Graphics & Text | Print | Product List | Glossary Off
Versions: 1 2 3 4 5 6 7 8 9 10 11 12 13 14 15 16 17 18 19 20 21 22 23 24 25 26 27 28 29 30 31 32 33 34 35 36 37 38 39 40 41 42 43 44 45 46 47 48 49 50

000
ASUS42 KMHX 302113
RWRMHX
WEATHER ROUNDUP FOR EASTERN NORTH CAROLINA
NATIONAL WEATHER SERVICE NEWPORT/MOREHEAD CITY NC
500 PM EDT MON MAY 30 2016

NOTE: "FAIR" INDICATES FEW OR NO CLOUDS BELOW 12,000 FEET
WITH NO SIGNIFICANT WEATHER AND/OR OBSTRUCTIONS TO VISIBILITY

NCZ015>017-031-032-045>047-102-103-302200-
NORTH COAST

CITY           SKY/WX    TMP DP  RH WIND       PRES   REMARKS
EDENTON        DRIZZLE  N/A N/A N/A SE5       29.96F
ELIZABETH CITY LGT RAIN  74  71  91 SE9       29.97S
KITTY HAWK     DRIZZLE   73  71  93 S5        29.97S
MANTEO         NOT AVBL

$$

NCZ045>047-081-094-103-104-302200-
CENTRAL COAST

CITY           SKY/WX    TMP DP  RH WIND       PRES   REMARKS
FRISCO         HVY RAIN  73  71  93 S16G28    29.97S FOG

$$

NCZ095-097-098-100-101-302200-
SOUTHERN COAST

CITY           SKY/WX    TMP DP  RH WIND       PRES   REMARKS
BEAUFORT       PTSUNNY   78  72  81 VRB7      29.93F
CEDAR ISLAND   NOT AVBL
JACKSONVILLE   PTSUNNY   80  70  71 SE14      29.91S
PINEY ISLAND   NOT AVBL
WILMINGTON     CLOUDY    79  67  66 SE9       29.89F


$$

NCZ011>013-027>030-043-044-078>080-089-090>093-098-302200-
COASTAL PLAIN

CITY           SKY/WX    TMP DP  RH WIND       PRES   REMARKS
AHOSKIE        CLOUDY    76  72  85 E6        29.96S
CLINTON        MOSUNNY   81  73  74 E5        29.90R
ELIZABETHTOWN  RAIN      73  70  91 E6        29.91R
GOLDSBORO      NOT AVBL
GREENVILLE     CLOUDY    77  72  83 SE8       29.95F
HAVELOCK       CLOUDY    79  70  74 E7        29.94F
KENANSVILLE    CLOUDY    76  71  85 CALM      29.92R
KINSTON        CLOUDY    77  75  94 E9        29.94S
NEW BERN       MOSUNNY   78  70  76 E8        29.94F
RICHLANDS      PTSUNNY   81  71  71 E9        29.91S
ROCKY MOUNT    CLOUDY    80  72  76 E3        29.93F
WASHINGTON     LGT RAIN  73  71  93 SE5       29.94F
WHITEVILLE     PTSUNNY   78  71  77 E8        29.88R

$$

AMZ130-135-150-152-154-156-158-170-250-252-270-ANZ085-086-088-633-658-670-302200-
MARINE OBSERVATIONS

STATION/POSITION TIME  TEMP    WIND        PRES    WAVE   SWELL
                       AIR SEA DIR/SP/G            HT/PER HT/PER
                 (UTC) (F)     (DEG/KT/KT) (MB)    (FT/S) (FT/S)
CHESAPEAKE LIGHT 2100   69     170/ 10/ 10 1016.0
64 E VA BEACH    2050   66 64  180/  4/  6 1015.2    6/ 7   7/ 7
DUCK             2000   65 58  140/  8/  9 1014.4
2 E DUCK         2011      62                N/A     4/ 8
OREGON INLET     2000   71 76  150/  7/ 10 1015.3
13E OREGON INLT  2100      71                N/A     5/ 7   5/ 7
HATTERAS CG      2000   72 75   70/  4/  6 1014.3
DIAMOND BUOY     2050   78 80  160/ 21/ 25 1013.7    7/ 8   2/19
CAPE LOOKOUT     2100   75      60/  5/  7 1013.2
BEAUFORT LAB     2000   76 74   80/  4/  5 1013.1
30 SE NEW RVR IN 2025      76                N/A     6/ 8
27 SE WRIGHTSVLE 2008   79 76  160/ 10/ 14 1013.0
5 SE WRIGHTSVLE  2008   78 77  140/  6/ 10 1013.2
225 S CAPE HAT   2050   76 76  180/ 10/ 12 1014.5    6/ 8   5/ 8
41 SE CHARLESTON 2050   73 78  220/ 12/ 14 1011.3    4/ 8   3/ 8

$$



USA.gov is the U.S. government's official web portal to all federal, state and local government web resources and services.